User: anonymous   Login
Location: Holcomb Observatory
(44.4922°N, 73.1654°W)
Time: 20:05:43
(UTC-04:00)
Language:

Cosmos 1727 Rocket - Orbit

View from above orbital plane
View from above orbital plane
View from above satellite
View from above satellite

Ground track
Ground track

The orbit data is extracted from the following two-line orbital elements,

1 16511U 86008B   16147.92436867 -.00000047 +00000-0 -63644-4 0  9990
2 16511 082.9426 146.3764 0022784 282.7611 137.6692 13.75807081522900
Epoch (UTC): 26 May 2016 22:11:05
Eccentricity: 0.0022784
inclination: 82.9426°
perigee height: 962 km
apogee height: 995 km
right ascension of ascending node: 146.3764°
argument of perigee: 282.7611°
revolutions per day: 13.75807081
mean anomaly at epoch: 137.6692°
orbit number at epoch: 52290

The dashed part of the orbit path shows where the satellite is in the earth's shadow,  

DLR